DW4915 Mazarete ES current weather conditions

sailwx.info

Wind from 162 at 8 knots gusting 12

Air temperature 18.3° C
Dewpoint 11.6° C

Last reported at 2014-Sep-16 08:56 UTC.
Time now 2014-Sep-16 09:31 UTC

Location: N 40°58' W 002°11'.
View on Google Maps.

See reports from other nearby stations

  
Tides and Currents Weather Stations Pressure Air Temp Water Temp Dewpoint Dewpoint Depression Visibility Wind Speed Wind Dir Waves Ship Positions
date/time (UTC)wind fromknots sea level pressurealtimeterstation pressurevisibilityair tempwater tempwave heightnotes
2014-Sep-16 08:56 162 8 gusting 12 18.3
2014-Sep-16 08:46 168 8 gusting 12 17.8
2014-Sep-16 08:36 162 6 gusting 12 17.2
2014-Sep-16 08:26 177 6 gusting 11 17.2
2014-Sep-16 08:21 167 6 gusting 9 17.2
2014-Sep-16 08:16 154 4 gusting 8 17.2
2014-Sep-16 08:06 171 5 gusting 8 16.7
2014-Sep-16 08:01 253 4 gusting 7 15.6
2014-Sep-16 07:51 263 1 gusting 4 15.0
2014-Sep-16 07:46 263 0 gusting 5 14.4
2014-Sep-16 07:41 263 0 gusting 4 13.9
2014-Sep-16 07:31 262 1 gusting 3 13.3
2014-Sep-16 07:21 265 12.2
2014-Sep-16 07:11 263 11.1
2014-Sep-16 07:06 262 10.6
2014-Sep-16 07:01 264 9.4
2014-Sep-16 06:56 263 8.9
2014-Sep-16 06:46 264 8.3
2014-Sep-16 06:36 262 7.8
2014-Sep-16 06:31 265 7.2
2014-Sep-16 06:26 263 7.2
2014-Sep-16 06:21 264 7.2
2014-Sep-16 06:16 263 7.2
2014-Sep-16 06:11 262 7.2
2014-Sep-16 06:06 264 7.2
2014-Sep-16 06:01 262 7.2
2014-Sep-16 05:56 264 7.2
2014-Sep-16 05:51 265 7.2
2014-Sep-16 05:46 263 7.2
2014-Sep-16 05:41 263 7.2
2014-Sep-16 05:36 262 7.2
2014-Sep-16 05:31 263 6.7
2014-Sep-16 05:26 262 6.7
2014-Sep-16 05:21 263 6.7
2014-Sep-16 05:16 262 6.7
2014-Sep-16 05:11 263 6.7
2014-Sep-16 05:06 264 6.7
2014-Sep-16 05:01 264 6.7
2014-Sep-16 04:56 263 6.7
2014-Sep-16 04:51 262 6.7
2014-Sep-16 04:46 263 6.7
2014-Sep-16 04:41 263 7.2
2014-Sep-16 04:36 263 6.7
2014-Sep-16 04:31 263 6.7
2014-Sep-16 04:26 264 7.2
2014-Sep-16 04:21 263 6.7
2014-Sep-16 04:16 263 7.2
2014-Sep-16 04:11 262 7.2
2014-Sep-16 04:06 263 7.2
2014-Sep-16 04:01 263 7.2
2014-Sep-16 03:56 262 7.2
2014-Sep-16 03:51 263 7.2
2014-Sep-16 03:46 262 7.2
2014-Sep-16 03:41 263 7.2
2014-Sep-16 03:36 262 7.2
2014-Sep-16 03:31 262 7.2
2014-Sep-16 03:26 264 7.2
2014-Sep-16 03:21 264 7.2
2014-Sep-16 03:16 262 7.2
2014-Sep-16 03:11 263 7.2
2014-Sep-16 03:06 262 7.2
2014-Sep-16 03:01 262 7.2
2014-Sep-16 02:56 264 7.8
2014-Sep-16 02:51 264 7.8
2014-Sep-16 02:46 263 7.8
2014-Sep-16 02:41 263 7.8
2014-Sep-16 02:36 262 7.8
2014-Sep-16 02:31 263 7.8
2014-Sep-16 02:26 261 7.8
2014-Sep-16 02:21 263 7.8
2014-Sep-16 02:16 263 7.8
2014-Sep-16 02:11 262 7.8
2014-Sep-16 02:06 264 7.8
2014-Sep-16 02:01 263 7.8
2014-Sep-16 01:56 262 7.8
2014-Sep-16 01:51 263 8.3
2014-Sep-16 01:46 262 8.3
2014-Sep-16 01:41 265 8.3
2014-Sep-16 01:36 264 8.3
2014-Sep-16 01:31 262 8.3
2014-Sep-16 01:26 263 8.3
2014-Sep-16 01:21 263 8.3
2014-Sep-16 01:16 262 8.3
2014-Sep-16 01:11 265 8.3
2014-Sep-16 01:06 263 8.9
2014-Sep-16 01:01 263 8.9
2014-Sep-16 00:56 264 8.3
2014-Sep-16 00:51 263 8.9
2014-Sep-16 00:46 262 8.9
2014-Sep-16 00:41 263 8.9
2014-Sep-16 00:36 262 8.9
2014-Sep-16 00:31 264 8.9
2014-Sep-16 00:26 263 8.9
2014-Sep-16 00:21 261 8.9
2014-Sep-16 00:16 262 8.9
2014-Sep-16 00:11 265 8.9
2014-Sep-16 00:06 262 9.4
2014-Sep-16 00:01 263 9.4
2014-Sep-15 23:56 264 9.4
2014-Sep-15 23:51 263 9.4
2014-Sep-15 23:46 262 9.4
2014-Sep-15 23:41 261 9.4
2014-Sep-15 23:36 264 9.4
2014-Sep-15 23:31 264 10.0
2014-Sep-15 23:26 262 10.0
2014-Sep-15 23:21 262 10.0
2014-Sep-15 23:16 264 10.0
2014-Sep-15 23:11 262 10.0
2014-Sep-15 23:06 262 10.0
2014-Sep-15 23:01 262 0 gusting 2 10.0
2014-Sep-15 22:56 263 0 gusting 2 10.6
2014-Sep-15 22:51 262 10.6
2014-Sep-15 22:46 262 10.6
2014-Sep-15 22:41 264 10.6
2014-Sep-15 22:36 263 10.6
2014-Sep-15 22:31 266 11.1
2014-Sep-15 22:26 263 11.1
2014-Sep-15 22:21 263 11.1
2014-Sep-15 22:16 263 1 gusting 3 11.1
2014-Sep-15 22:11 263 2 gusting 3 11.1
2014-Sep-15 22:06 261 11.1
2014-Sep-15 22:01 263 11.1
2014-Sep-15 21:56 261 11.1
2014-Sep-15 21:51 262 11.1
2014-Sep-15 21:46 263 1 gusting 4 11.1
2014-Sep-15 21:41 264 1 gusting 5 10.6
2014-Sep-15 21:36 263 2 gusting 5 10.0
2014-Sep-15 21:31 263 2 gusting 5 10.0
2014-Sep-15 21:26 264 1 gusting 3 10.0
2014-Sep-15 21:21 263 10.0
2014-Sep-15 21:16 263 10.0
2014-Sep-15 21:11 264 10.0
2014-Sep-15 21:06 263 10.0
2014-Sep-15 21:01 263 10.6
2014-Sep-15 20:56 263 10.6
2014-Sep-15 20:51 263 10.6
2014-Sep-15 20:46 263 10.6
2014-Sep-15 20:41 263 10.6
2014-Sep-15 20:36 263 10.6
2014-Sep-15 20:31 264 11.1
2014-Sep-15 20:26 264 11.1
2014-Sep-15 20:21 262 11.1
2014-Sep-15 20:16 263 11.1
2014-Sep-15 20:11 263 11.1
2014-Sep-15 20:06 265 11.1
2014-Sep-15 20:01 262 11.7
2014-Sep-15 19:56 263 11.7
2014-Sep-15 19:51 264 11.7
2014-Sep-15 19:46 263 12.2
2014-Sep-15 19:41 263 12.2
2014-Sep-15 19:36 263 12.2
2014-Sep-15 19:31 264 12.8
2014-Sep-15 19:26 263 12.8
2014-Sep-15 19:21 264 13.3
2014-Sep-15 19:16 263 13.3
2014-Sep-15 19:11 263 13.9
2014-Sep-15 19:06 263 14.4
2014-Sep-15 19:01 263 14.4
2014-Sep-15 18:56 263 15.0
2014-Sep-15 18:51 263 15.6
2014-Sep-15 18:46 263 16.1
2014-Sep-15 18:41 262 16.1
2014-Sep-15 18:36 262 16.7
2014-Sep-15 18:31 262 17.2
2014-Sep-15 18:26 263 17.8
2014-Sep-15 18:21 263 17.8
2014-Sep-15 18:16 265 18.3
2014-Sep-15 18:11 262 18.3
2014-Sep-15 18:06 263 0 gusting 4 18.3
2014-Sep-15 18:01 264 3 gusting 5 18.9
2014-Sep-15 17:56 264 0 gusting 5 18.9
2014-Sep-15 17:51 263 0 gusting 4 19.4
2014-Sep-15 17:46 263 1 gusting 5 19.4
2014-Sep-15 17:41 262 2 gusting 5 19.4
2014-Sep-15 17:36 262 2 gusting 7 20.0
2014-Sep-15 17:31 264 6 gusting 7 20.0
2014-Sep-15 17:26 258 4 gusting 6 20.0
2014-Sep-15 17:21 256 2 gusting 7 20.6
2014-Sep-15 17:16 252 3 gusting 8 20.6
2014-Sep-15 17:11 252 4 gusting 8 20.6
2014-Sep-15 17:06 265 0 gusting 8 21.1
2014-Sep-15 17:01 265 1 gusting 11 21.1
2014-Sep-15 16:56 248 5 gusting 11 21.1
2014-Sep-15 16:51 265 3 gusting 7 21.1
2014-Sep-15 16:46 248 3 gusting 7 21.1
2014-Sep-15 16:41 249 3 gusting 10 21.1
2014-Sep-15 16:36 265 6 gusting 10 21.1
2014-Sep-15 16:26 242 5 gusting 13 21.7
2014-Sep-15 16:21 251 7 gusting 13 21.7
2014-Sep-15 16:16 275 1 gusting 13 21.7
2014-Sep-15 16:11 263 4 gusting 13 21.1
2014-Sep-15 16:06 286 1 gusting 10 21.7
2014-Sep-15 16:01 277 6 gusting 10 21.7
2014-Sep-15 15:56 239 6 gusting 9 21.7
2014-Sep-15 15:51 267 6 gusting 9 21.7
2014-Sep-15 15:46 248 5 gusting 9 21.1
2014-Sep-15 15:41 287 2 gusting 12 21.1
2014-Sep-15 15:36 264 6 gusting 9 21.1
2014-Sep-15 15:31 277 4 gusting 11 21.7
2014-Sep-15 15:26 240 7 gusting 11 21.7
2014-Sep-15 15:21 242 6 gusting 12 21.7
2014-Sep-15 15:16 239 6 gusting 11 21.7
2014-Sep-15 15:11 258 5 gusting 12 21.1
2014-Sep-15 15:06 248 3 gusting 11 21.7
2014-Sep-15 15:01 266 4 gusting 11 21.7
2014-Sep-15 14:56 282 7 gusting 11 22.2
2014-Sep-15 14:51 250 3 gusting 10 22.2
2014-Sep-15 14:46 246 6 gusting 12 22.2
2014-Sep-15 14:41 248 5 gusting 11 22.2
2014-Sep-15 14:36 227 3 gusting 12 21.7
2014-Sep-15 14:31 262 9 gusting 12 21.1
2014-Sep-15 14:26 262 4 gusting 9 20.6
2014-Sep-15 14:21 274 6 gusting 11 21.1
2014-Sep-15 14:16 260 6 gusting 11 21.7
2014-Sep-15 14:11 252 6 gusting 10 22.2
2014-Sep-15 14:06 277 3 gusting 11 21.7
2014-Sep-15 14:01 270 6 gusting 11 21.7
2014-Sep-15 13:56 272 3 gusting 10 21.7
2014-Sep-15 13:51 256 4 gusting 10 21.7
2014-Sep-15 13:46 293 6 gusting 11 21.7
2014-Sep-15 13:41 283 6 gusting 10 21.1
2014-Sep-15 13:36 276 3 gusting 12 21.7
2014-Sep-15 13:31 254 6 gusting 12 21.7
2014-Sep-15 13:26 275 5 gusting 11 21.7
2014-Sep-15 13:21 245 6 gusting 11 21.1
2014-Sep-15 13:16 258 6 gusting 11 21.1
2014-Sep-15 13:11 226 6 gusting 12 21.7
2014-Sep-15 13:06 252 6 gusting 12 21.7
2014-Sep-15 13:01 242 6 gusting 8 21.1
2014-Sep-15 12:56 261 6 gusting 8 21.1
2014-Sep-15 12:51 285 3 gusting 10 21.1
2014-Sep-15 12:41 230 6 gusting 11 21.1
2014-Sep-15 12:36 268 7 gusting 12 21.1
2014-Sep-15 12:31 275 6 gusting 10 21.1
2014-Sep-15 12:26 287 5 gusting 10 21.1
2014-Sep-15 12:21 274 6 gusting 12 20.6
2014-Sep-15 12:16 253 7 gusting 12 20.6
2014-Sep-15 12:11 262 8 gusting 12 20.6
2014-Sep-15 12:06 183 6 gusting 11 20.6
2014-Sep-15 12:01 252 6 gusting 11 20.6
2014-Sep-15 11:56 235 7 gusting 12 20.6
2014-Sep-15 10:41 269 3 gusting 9 18.9
2014-Sep-15 10:36 242 5 gusting 10 19.4
2014-Sep-15 10:31 238 6 gusting 10 18.9
2014-Sep-15 10:26 266 5 gusting 7 18.9
2014-Sep-15 10:21 264 2 gusting 7 18.3
2014-Sep-15 10:16 265 1 gusting 7 18.3
2014-Sep-15 10:11 253 3 gusting 9 18.3
2014-Sep-15 10:06 252 4 gusting 9 18.3
2014-Sep-15 10:01 254 2 gusting 6 18.3
2014-Sep-15 09:56 254 4 gusting 9 17.8
2014-Sep-15 09:51 244 5 gusting 9 17.8
2014-Sep-15 09:46 246 4 gusting 7 17.8
2014-Sep-15 09:41 247 1 gusting 6 18.3
2014-Sep-15 09:36 225 3 gusting 7 17.8
2014-Sep-15 09:31 198 4 gusting 7 17.8
2014-Sep-15 09:26 176 0 gusting 4 17.8
2014-Sep-15 09:21 177 1 gusting 6 17.2
2014-Sep-15 09:16 175 1 gusting 6 17.2
2014-Sep-15 09:11 175 2 gusting 6 17.2
2014-Sep-15 09:06 160 2 gusting 4 17.2
2014-Sep-15 09:01 156 17.2
2014-Sep-15 08:56 158 16.7
2014-Sep-15 08:51 158 0 gusting 3 16.7
2014-Sep-15 08:46 160 1 gusting 3 16.1
2014-Sep-15 08:41 158 1 gusting 3 16.1
2014-Sep-15 08:36 157 16.1
2014-Sep-15 08:31 158 2 gusting 5 16.1
2014-Sep-15 08:26 160 0 gusting 5 15.6
2014-Sep-15 08:21 158 2 gusting 6 15.0
2014-Sep-15 08:16 157 3 gusting 6 15.0
2014-Sep-15 08:11 157 4 gusting 6 15.0
2014-Sep-15 08:06 156 4 gusting 6 14.4
2014-Sep-15 08:01 354 2 gusting 5 14.4
2014-Sep-15 07:56 352 3 gusting 5 13.9
2014-Sep-15 07:51 353 1 gusting 4 13.9
2014-Sep-15 07:46 354 0 gusting 5 13.3
2014-Sep-15 07:41 353 0 gusting 5 13.3
2014-Sep-15 07:36 353 0 gusting 4 12.8
2014-Sep-15 07:31 355 1 gusting 4 12.8
2014-Sep-15 07:26 354 1 gusting 5 12.2
2014-Sep-15 07:21 354 3 gusting 5 12.2
2014-Sep-15 07:16 352 11.7
2014-Sep-15 07:11 354 11.7
2014-Sep-15 07:06 352 11.1
2014-Sep-15 07:01 354 10.6
2014-Sep-15 06:56 353 10.6
2014-Sep-15 06:51 353 10.0
2014-Sep-15 06:46 354 9.4
2014-Sep-15 06:41 353 9.4
2014-Sep-15 06:36 352 8.9
2014-Sep-15 06:31 354 8.9
2014-Sep-15 06:26 352 8.9
2014-Sep-15 06:21 356 8.9
2014-Sep-15 06:16 354 8.9
2014-Sep-15 06:11 354 1 gusting 3 8.9
2014-Sep-15 06:06 356 8.9
2014-Sep-15 06:01 354 8.9
2014-Sep-15 05:56 354 8.9
2014-Sep-15 05:51 356 8.9
2014-Sep-15 05:46 352 8.9
2014-Sep-15 05:41 354 8.9
2014-Sep-15 05:36 354 8.9
2014-Sep-15 05:31 354 9.4
2014-Sep-15 05:26 354 9.4
2014-Sep-15 05:21 355 9.4
2014-Sep-15 05:16 354 10.0
2014-Sep-15 05:11 354 10.0
2014-Sep-15 05:06 354 10.0
2014-Sep-15 05:01 356 10.6
2014-Sep-15 04:56 354 10.6
2014-Sep-15 04:51 355 10.6
2014-Sep-15 04:46 354 11.1
2014-Sep-15 04:41 354 11.1
2014-Sep-15 04:36 354 11.1
2014-Sep-15 04:31 354 11.1
2014-Sep-15 04:26 353 0 gusting 3 11.1
2014-Sep-15 04:21 354 11.1
2014-Sep-15 04:16 353 11.1
2014-Sep-15 04:11 353 3 gusting 6 11.7
2014-Sep-15 04:06 354 0 gusting 2 11.7
2014-Sep-15 04:01 353 11.7
2014-Sep-15 03:56 354 11.7
2014-Sep-15 03:51 354 2 gusting 10 11.7
2014-Sep-15 03:46 353 6 gusting 13 11.7
2014-Sep-15 03:41 350 8 gusting 11 11.7
2014-Sep-15 03:36 348 6 gusting 11 11.7
2014-Sep-15 03:31 312 5 gusting 10 11.7
2014-Sep-15 03:26 323 6 gusting 10 11.7
2014-Sep-15 03:21 288 5 gusting 15 11.7
2014-Sep-15 03:16 273 8 gusting 15 11.7
2014-Sep-15 03:11 275 10 gusting 18 11.7
2014-Sep-15 03:06 244 8 gusting 18 11.7
2014-Sep-15 03:01 254 0 gusting 2 10.6
2014-Sep-15 02:56 254 10.0
2014-Sep-15 02:51 253 0 gusting 1 9.4
2014-Sep-15 02:46 254 9.4
2014-Sep-15 02:41 254 9.4
2014-Sep-15 02:36 254 9.4
2014-Sep-15 02:31 255 9.4
2014-Sep-15 02:26 255 9.4
2014-Sep-15 02:21 255 9.4
2014-Sep-15 02:16 254 9.4
2014-Sep-15 02:11 254 9.4
2014-Sep-15 02:06 253 9.4
2014-Sep-15 02:01 254 9.4
2014-Sep-15 01:56 255 9.4
2014-Sep-15 01:51 253 9.4
2014-Sep-15 01:46 254 9.4
2014-Sep-15 01:41 254 9.4
2014-Sep-15 01:36 254 9.4
2014-Sep-15 01:31 254 9.4
2014-Sep-15 01:26 255 9.4
2014-Sep-15 01:21 253 1 gusting 3 8.9
2014-Sep-15 01:16 254 8.9
2014-Sep-15 01:11 254 8.3
2014-Sep-15 01:06 254 8.3
2014-Sep-15 01:01 254 8.3
2014-Sep-15 00:56 252 8.3
2014-Sep-15 00:51 254 8.3
2014-Sep-15 00:46 254 8.3
2014-Sep-15 00:41 254 8.3
2014-Sep-15 00:36 254 8.9
2014-Sep-15 00:31 254 8.9
2014-Sep-15 00:26 255 0 gusting 1 8.9
2014-Sep-15 00:21 254 8.9
2014-Sep-15 00:16 254 9.4
2014-Sep-15 00:11 254 9.4
2014-Sep-15 00:06 254 9.4
2014-Sep-15 00:01 254 9.4
2014-Sep-14 23:56 254 9.4
2014-Sep-14 23:51 254 9.4
2014-Sep-14 23:46 254 9.4
2014-Sep-14 23:41 254 8.9
2014-Sep-14 23:36 254 9.4
2014-Sep-14 23:31 254 9.4
2014-Sep-14 23:26 254 9.4
2014-Sep-14 23:21 254 9.4
2014-Sep-14 23:16 254 9.4
2014-Sep-14 23:11 254 9.4
2014-Sep-14 23:06 254 9.4
2014-Sep-14 23:01 254 9.4
2014-Sep-14 22:56 254 9.4
2014-Sep-14 22:51 254 9.4
2014-Sep-14 22:46 254 9.4
2014-Sep-14 22:41 254 9.4
2014-Sep-14 22:36 254 9.4
2014-Sep-14 22:31 253 9.4
2014-Sep-14 22:26 254 9.4
2014-Sep-14 22:21 254 9.4
2014-Sep-14 22:16 253 9.4
2014-Sep-14 22:11 254 9.4
2014-Sep-14 22:06 253 9.4
2014-Sep-14 22:01 254 9.4
2014-Sep-14 21:56 254 9.4
2014-Sep-14 21:51 254 9.4
2014-Sep-14 21:46 254 9.4
2014-Sep-14 21:41 252 9.4
2014-Sep-14 21:36 254 9.4
2014-Sep-14 21:31 254 9.4
2014-Sep-14 21:26 254 9.4
2014-Sep-14 21:21 254 10.0
2014-Sep-14 21:16 254 10.0
2014-Sep-14 21:11 254 10.0
2014-Sep-14 21:06 254 10.6
2014-Sep-14 21:01 254 10.6
2014-Sep-14 20:56 254 10.6
2014-Sep-14 20:51 254 10.6
2014-Sep-14 20:46 254 11.1
2014-Sep-14 20:41 254 11.1
2014-Sep-14 20:36 253 11.1
2014-Sep-14 20:31 254 11.1
2014-Sep-14 20:26 254 11.7
2014-Sep-14 20:21 254 11.7
2014-Sep-14 20:16 254 12.2
2014-Sep-14 20:11 254 12.2
2014-Sep-14 20:06 254 12.8
2014-Sep-14 20:01 254 13.3
2014-Sep-14 19:56 254 13.3
2014-Sep-14 19:51 253 13.9
2014-Sep-14 19:46 254 14.4
2014-Sep-14 19:41 254 15.0
2014-Sep-14 19:36 255 15.6
2014-Sep-14 19:31 254 16.1
2014-Sep-14 19:26 254 16.7
2014-Sep-14 19:21 254 17.2
2014-Sep-14 19:16 254 17.8
2014-Sep-14 19:11 254 18.3
2014-Sep-14 19:06 253 18.3
2014-Sep-14 19:01 254 18.3
2014-Sep-14 18:56 254 18.9
2014-Sep-14 18:51 254 18.9
2014-Sep-14 18:46 254 0 gusting 3 19.4
2014-Sep-14 18:41 254 0 gusting 7 19.4
2014-Sep-14 18:36 254 1 gusting 7 19.4
2014-Sep-14 18:31 259 1 gusting 6 20.0
2014-Sep-14 18:26 259 2 gusting 6 20.0
2014-Sep-14 18:21 266 2 gusting 7 20.6
2014-Sep-14 18:16 267 4 gusting 9 20.6
2014-Sep-14 18:11 269 3 gusting 13 20.6
2014-Sep-14 18:06 248 5 gusting 12 21.1
2014-Sep-14 18:01 267 6 gusting 12 21.1
2014-Sep-14 17:56 252 5 gusting 13 21.1
2014-Sep-14 17:51 244 7 gusting 13 21.1
2014-Sep-14 17:46 254 7 gusting 14 21.7
2014-Sep-14 17:41 258 6 gusting 14 21.7
2014-Sep-14 17:36 243 7 gusting 14 21.7
2014-Sep-14 17:31 259 8 gusting 13 21.7
2014-Sep-14 17:26 254 9 gusting 14 22.2
2014-Sep-14 17:21 268 8 gusting 14 22.2
2014-Sep-14 17:16 227 6 gusting 14 22.8
2014-Sep-14 17:11 254 10 gusting 14 22.8
2014-Sep-14 17:06 251 9 gusting 16 23.3
2014-Sep-14 17:01 221 8 gusting 14 23.3
2014-Sep-14 16:56 265 7 gusting 14 23.9
2014-Sep-14 16:51 255 7 gusting 14 23.9
2014-Sep-14 16:46 262 9 gusting 14 23.3
2014-Sep-14 16:41 282 7 gusting 11 23.3
2014-Sep-14 16:36 308 0 gusting 12 22.8
2014-Sep-14 16:31 271 7 gusting 12 23.3
2014-Sep-14 16:26 284 5 gusting 9 22.8
2014-Sep-14 16:21 287 2 gusting 9 21.7
2014-Sep-14 16:16 311 4 gusting 9 22.2
2014-Sep-14 16:11 296 0 gusting 3 22.2
2014-Sep-14 16:06 297 0 gusting 7 22.2
2014-Sep-14 16:01 296 4 gusting 7 22.2
2014-Sep-14 15:56 319 1 gusting 6 22.2
2014-Sep-14 15:51 317 4 gusting 6 21.7
2014-Sep-14 15:46 322 3 gusting 6 21.7
2014-Sep-14 15:41 321 1 gusting 6 22.2
2014-Sep-14 15:36 319 3 gusting 8 22.2
2014-Sep-14 15:31 318 3 gusting 8 22.2
2014-Sep-14 15:26 323 5 gusting 11 22.2
2014-Sep-14 15:21 348 6 gusting 11 22.2
2014-Sep-14 15:16 337 5 gusting 15 22.8
2014-Sep-14 15:11 345 8 gusting 15 22.2
2014-Sep-14 15:06 341 10 gusting 13 22.2
2014-Sep-14 15:01 311 9 gusting 13 22.8
2014-Sep-14 14:56 316 10 gusting 16 22.8
2014-Sep-14 14:51 332 12 gusting 16 22.8
2014-Sep-14 14:46 352 8 gusting 14 22.8
2014-Sep-14 14:41 330 8 gusting 13 22.2
2014-Sep-14 14:36 336 8 gusting 16 22.8
2014-Sep-14 14:31 296 7 gusting 16 24.4
2014-Sep-14 14:26 221 8 gusting 13 24.4
2014-Sep-14 14:21 211 8 gusting 13 24.4
2014-Sep-14 14:16 246 6 gusting 16 25.0
2014-Sep-14 14:11 277 7 gusting 16 25.0
2014-Sep-14 14:06 273 8 gusting 13 25.6
2014-Sep-14 14:01 293 7 gusting 13 24.4
2014-Sep-14 13:56 275 8 gusting 13 23.9
2014-Sep-14 13:51 286 6 gusting 11 22.8
2014-Sep-14 13:46 235 4 gusting 14 22.8
2014-Sep-14 13:41 242 7 gusting 14 22.8
2014-Sep-14 13:36 291 8 gusting 13 22.8
2014-Sep-14 13:31 284 7 gusting 16 23.3
2014-Sep-14 13:26 254 8 gusting 16 23.9
2014-Sep-14 13:21 237 10 gusting 16 25.0
2014-Sep-14 13:16 229 9 gusting 17 25.0
2014-Sep-14 13:11 216 7 gusting 17 25.0
2014-Sep-14 13:06 285 4 gusting 14 24.4
2014-Sep-14 13:01 273 9 gusting 13 23.9
2014-Sep-14 12:56 269 5 gusting 14 23.3
2014-Sep-14 12:51 221 8 gusting 14 23.3
2014-Sep-14 12:46 239 9 gusting 13 23.3
2014-Sep-14 12:41 300 5 gusting 14 23.3
2014-Sep-14 12:36 246 6 gusting 15 23.9
2014-Sep-14 12:31 262 6 gusting 13 23.9
2014-Sep-14 12:26 244 8 gusting 13 23.3
2014-Sep-14 12:21 281 7 gusting 13 23.3
2014-Sep-14 12:16 275 7 gusting 13 23.3
2014-Sep-14 12:11 290 6 gusting 12 23.3
2014-Sep-14 12:06 265 6 gusting 12 23.9
2014-Sep-14 12:01 275 6 gusting 14 23.9
2014-Sep-14 11:56 257 6 gusting 15 23.9
2014-Sep-14 11:51 267 12 gusting 19 24.4
2014-Sep-14 11:46 257 12 gusting 19 23.9
2014-Sep-14 11:41 272 9 gusting 14 23.9
2014-Sep-14 11:36 282 10 gusting 15 23.9
2014-Sep-14 11:31 287 7 gusting 15 23.9
2014-Sep-14 11:26 277 7 gusting 16 23.9
2014-Sep-14 11:21 282 8 gusting 16 23.9
2014-Sep-14 11:16 266 8 gusting 12 23.9
2014-Sep-14 11:11 252 5 gusting 13 23.3
2014-Sep-14 11:06 221 8 gusting 14 23.3
2014-Sep-14 11:01 230 6 gusting 13 23.3
2014-Sep-14 10:56 211 8 gusting 13 23.3
2014-Sep-14 10:51 234 8 gusting 13 23.3
2014-Sep-14 10:46 267 10 gusting 14 23.3
2014-Sep-14 10:41 211 6 gusting 14 23.3
2014-Sep-14 10:36 229 6 gusting 13 22.8
2014-Sep-14 10:31 232 5 gusting 12 22.8
2014-Sep-14 10:26 277 7 gusting 13 22.8
2014-Sep-14 10:21 221 8 gusting 11 22.8
2014-Sep-14 10:16 279 6 gusting 12 22.8
2014-Sep-14 10:11 263 3 gusting 12 22.2
2014-Sep-14 10:06 229 6 gusting 10 22.2
2014-Sep-14 10:01 243 4 gusting 11 22.2
2014-Sep-14 09:56 240 6 gusting 13 21.7
2014-Sep-14 09:51 261 6 gusting 13 21.7
2014-Sep-14 09:46 196 5 gusting 10 21.7
2014-Sep-14 09:41 211 6 gusting 10 21.1
2014-Sep-14 09:36 211 6 gusting 9 21.1
2014-Sep-14 09:31 211 6 gusting 9 21.1
2014-Sep-14 09:26 188 4 gusting 8 21.1
2014-Sep-14 09:21 188 5 gusting 8 20.6
2014-Sep-14 09:16 189 4 gusting 8 20.6
2014-Sep-14 09:11 181 4 gusting 9 20.6
2014-Sep-14 09:06 180 6 gusting 9 20.0
2014-Sep-14 09:01 181 4 gusting 8 20.0